Location: Kuppenheim
(48.8299°N, 8.2568°E)
Time: 21:38:38
(UTC+00:00)

Cosmos 990 Rocket - Pass Details

Date: 17 October 2021
Orbit: 746 x 769 km, 74.0° (Epoch: 27 November)

Event Time Altitude Azimuth Distance (km) Brightness Sun altitude
Rises 18:01:40 0° 265° (W) 3,219 9.0 -15.3°
Reaches altitude 10° 18:05:31 10° 294° (WNW) 2,303 7.6 -15.9°
Maximum altitude 18:07:47 13° 320° (NW) 2,121 6.9 -16.3°
Drops below altitude 10° 18:10:05 10° 346° (NNW) 2,314 6.7 -16.7°
Sets 18:13:59 0° 15° (NNE) 3,249 7.2 -17.3°
